ネオワイズ彗星

C/2019 H1 ( NEOWISE )

English version
Home page
Updated on August 19, 2019

---------------------------------------------------------------------

・ プロフィール

発見日 2019年4月18日
発見光度 18等
発見者 Near-Earth Object Wide-field Infrared Survey Explorer

・ 写真集

・ 軌道要素

Epoch 2019 Apr. 27.0 TT = JDT 2458600.5                                         
T 2019 Apr. 27.73154 TT                                 Williams                
q   1.8447324            (2000.0)            P               Q                  
z  +0.0043566      Peri.   19.27937     -0.09653761     -0.23286543             
 +/-0.0000440      Node   269.18422     -0.99196356     -0.05737891             
e   0.9919633      Incl.  104.57849     -0.08178497     +0.97081479             
H                                                                               
From 131 observations 2019 Apr. 9-July 3, mean residual 0".6.                   

・ 光度変化

        m1 = 15.0 + 5 logΔ + 10.0 log r

---------------------------------------------------------------------

軌道要素はM.P.E.C. 2019-Q16に掲載されたものです。
光度グラフはComet for Windowsで作成したものです。

---------------------------------------------------------------------

Copyright(C) Seiichi Yoshida (comet@aerith.net). All rights reserved.